• In Deutschland
  • Länderverzeichnis
  • Für 7 Tage
  • Wassertemperatur
  • Satellitenkarten
  • Wetterkarte
  • Widgets
  • user-avatar
    Anmelden

    Stündliche Wetter Tahanka

    Heute, 15 August, Mittwoch

    Zeit Temperatur Niederschläge Wind Luftdruck Luftfeuchtigkeit
    00:00 +21°C° 0 mm 3 m/S 753 mmHg 53%
    01:00 +21°C° 0 mm 2 m/S 753 mmHg 53%
    02:00 +21°C° 0 mm 2 m/S 753 mmHg 54%
    03:00 +20°C° 0 mm 2 m/S 753 mmHg 55%
    04:00 +20°C° 0 mm 2 m/S 753 mmHg 56%
    05:00 +20°C° 0 mm 2 m/S 753 mmHg 57%
    06:00 +23°C° 0 mm 2 m/S 753 mmHg 54%
    07:00 +25°C° 0 mm 3 m/S 753 mmHg 51%
    08:00 +27°C° 0 mm 3 m/S 753 mmHg 48%
    09:00 +29°C° 0 mm 3 m/S 753 mmHg 44%
    10:00 +30°C° 0 mm 2 m/S 753 mmHg 41%
    11:00 +32°C° 0 mm 2 m/S 753 mmHg 38%
    12:00 +32°C° 0 mm 2 m/S 753 mmHg 37%
    13:00 +32°C° 0 mm 2 m/S 752 mmHg 36%
    14:00 +32°C° 0 mm 2 m/S 752 mmHg 35%
    15:00 +32°C° 0 mm 1 m/S 752 mmHg 36%
    16:00 +32°C° 0 mm 1 m/S 752 mmHg 37%
    17:00 +32°C° 0 mm 1 m/S 752 mmHg 39%
    18:00 +30°C° 0 mm 1 m/S 752 mmHg 41%
    19:00 +28°C° 0 mm 1 m/S 752 mmHg 44%
    20:00 +26°C° 0 mm 1 m/S 752 mmHg 47%
    21:00 +26°C° 0 mm 1 m/S 752 mmHg 48%
    22:00 +25°C° 0 mm 1 m/S 752 mmHg 48%
    23:00 +25°C° 0 mm 1 m/S 752 mmHg 49%

    Morgen, 16 August, Donnerstag

    Zeit Temperatur Niederschläge Wind Luftdruck Luftfeuchtigkeit
    00:00 +24°C° 0 mm 1 m/S 752 mmHg 49%
    01:00 +24°C° 0 mm 1 m/S 752 mmHg 50%
    02:00 +23°C° 0 mm 2 m/S 752 mmHg 50%
    03:00 +23°C° 0 mm 2 m/S 752 mmHg 51%
    04:00 +22°C° 0 mm 1 m/S 752 mmHg 52%
    05:00 +22°C° 0 mm 1 m/S 752 mmHg 53%
    06:00 +24°C° 0 mm 2 m/S 752 mmHg 49%
    07:00 +26°C° 0 mm 2 m/S 752 mmHg 45%
    08:00 +28°C° 0 mm 2 m/S 752 mmHg 41%
    09:00 +30°C° 0 mm 2 m/S 752 mmHg 38%
    10:00 +31°C° 0 mm 2 m/S 752 mmHg 34%
    11:00 +34°C° 0 mm 2 m/S 752 mmHg 31%
    12:00 +33°C° 0 mm 1 m/S 752 mmHg 29%
    13:00 +34°C° 0 mm 1 m/S 751 mmHg 27%
    14:00 +35°C° 0 mm 1 m/S 751 mmHg 26%
    15:00 +34°C° 0 mm 1 m/S 751 mmHg 28%
    16:00 +33°C° 0 mm 1 m/S 751 mmHg 31%
    17:00 +32°C° 0 mm 1 m/S 751 mmHg 34%
    18:00 +31°C° 0 mm 2 m/S 751 mmHg 36%
    19:00 +29°C° 0 mm 2 m/S 751 mmHg 38%
    20:00 +28°C° 0 mm 2 m/S 751 mmHg 39%
    21:00 +27°C° 0 mm 2 m/S 752 mmHg 40%
    22:00 +27°C° 0 mm 2 m/S 752 mmHg 40%
    23:00 +27°C° 0 mm 2 m/S 752 mmHg 40%

    übermorgen, 17 August, Freitag

    Zeit Temperatur Niederschläge Wind Luftdruck Luftfeuchtigkeit
    00:00 +26°C° 0 mm 2 m/S 752 mmHg 41%
    01:00 +26°C° 0 mm 2 m/S 752 mmHg 42%
    02:00 +25°C° 0 mm 2 m/S 752 mmHg 42%
    03:00 +25°C° 0 mm 2 m/S 752 mmHg 44%
    04:00 +24°C° 0 mm 2 m/S 752 mmHg 46%
    05:00 +24°C° 0 mm 2 m/S 752 mmHg 48%
    06:00 +25°C° 0 mm 2 m/S 752 mmHg 47%
    07:00 +26°C° 0 mm 2 m/S 752 mmHg 46%
    08:00 +28°C° 0 mm 2 m/S 752 mmHg 45%
    09:00 +29°C° 0 mm 2 m/S 752 mmHg 41%
    10:00 +31°C° 0 mm 2 m/S 752 mmHg 36%
    11:00 +34°C° 0 mm 2 m/S 752 mmHg 32%
    12:00 +34°C° 0 mm 2 m/S 752 mmHg 31%
    13:00 +34°C° 0 mm 2 m/S 752 mmHg 31%
    14:00 +33°C° 0 mm 1 m/S 751 mmHg 31%
    15:00 +32°C° 0 mm 2 m/S 751 mmHg 34%
    16:00 +31°C° 0 mm 2 m/S 751 mmHg 37%
    17:00 +31°C° 0 mm 2 m/S 751 mmHg 40%
    18:00 +29°C° 0 mm 2 m/S 751 mmHg 42%
    19:00 +28°C° 0 mm 2 m/S 752 mmHg 43%
    20:00 +27°C° 0 mm 2 m/S 752 mmHg 45%
    21:00 +26°C° 0 mm 2 m/S 752 mmHg 47%
    22:00 +26°C° 0 mm 2 m/S 752 mmHg 48%
    23:00 +25°C° 0 mm 3 m/S 752 mmHg 50%

    18 August, Samstag

    Zeit Temperatur Niederschläge Wind Luftdruck Luftfeuchtigkeit
    00:00 +24°C° 0 mm 3 m/S 752 mmHg 54%
    01:00 +22°C° 0 mm 3 m/S 752 mmHg 59%
    02:00 +22°C° 0 mm 3 m/S 752 mmHg 63%
    03:00 +21°C° 0 mm 3 m/S 752 mmHg 67%
    04:00 +21°C° 0 mm 3 m/S 753 mmHg 71%
    05:00 +20°C° 0 mm 3 m/S 753 mmHg 75%
    06:00 +22°C° 0 mm 3 m/S 753 mmHg 73%
    07:00 +23°C° 0 mm 4 m/S 753 mmHg 70%
    08:00 +25°C° 0 mm 4 m/S 753 mmHg 68%
    09:00 +27°C° 0 mm 4 m/S 753 mmHg 62%
    10:00 +28°C° 0 mm 4 m/S 753 mmHg 55%
    11:00 +30°C° 0 mm 4 m/S 753 mmHg 48%
    12:00 +32°C° 0 mm 4 m/S 753 mmHg 46%
    13:00 +32°C° 0 mm 4 m/S 753 mmHg 44%
    14:00 +33°C° 0 mm 4 m/S 753 mmHg 43%
    15:00 +32°C° 0 mm 4 m/S 753 mmHg 45%
    16:00 +30°C° 0 mm 4 m/S 753 mmHg 48%
    17:00 +29°C° 0 mm 4 m/S 753 mmHg 50%
    18:00 +27°C° 0,1 mm 4 m/S 753 mmHg 53%
    19:00 +26°C° 0,1 mm 4 m/S 754 mmHg 56%
    20:00 +23°C° 0,1 mm 4 m/S 754 mmHg 58%
    21:00 +22°C° 0 mm 4 m/S 754 mmHg 59%
    22:00 +21°C° 0 mm 4 m/S 754 mmHg 60%
    23:00 +21°C° 0 mm 4 m/S 754 mmHg 61%

    19 August, Sonntag

    Zeit Temperatur Niederschläge Wind Luftdruck Luftfeuchtigkeit
    00:00 +20°C° 0 mm 4 m/S 755 mmHg 61%
    01:00 +19°C° 0 mm 4 m/S 755 mmHg 62%
    02:00 +18°C° 0 mm 3 m/S 755 mmHg 63%
    03:00 +18°C° 0 mm 3 m/S 755 mmHg 64%
    04:00 +17°C° 0 mm 3 m/S 755 mmHg 66%
    05:00 +16°C° 0 mm 3 m/S 755 mmHg 67%
    06:00 +18°C° 0 mm 3 m/S 755 mmHg 62%
    07:00 +20°C° 0 mm 4 m/S 755 mmHg 57%
    08:00 +22°C° 0 mm 4 m/S 755 mmHg 53%
    09:00 +23°C° 0 mm 4 m/S 755 mmHg 47%
    10:00 +26°C° 0 mm 4 m/S 755 mmHg 41%
    11:00 +27°C° 0 mm 4 m/S 755 mmHg 36%
    12:00 +28°C° 0 mm 3 m/S 754 mmHg 34%
    13:00 +28°C° 0 mm 3 m/S 754 mmHg 31%
    14:00 +29°C° 0 mm 3 m/S 754 mmHg 29%
    15:00 +28°C° 0 mm 3 m/S 754 mmHg 32%
    16:00 +28°C° 0 mm 3 m/S 754 mmHg 34%
    17:00 +27°C° 0 mm 2 m/S 753 mmHg 36%
    18:00 +25°C° 0 mm 2 m/S 753 mmHg 39%
    19:00 +22°C° 0 mm 3 m/S 753 mmHg 41%
    20:00 +20°C° 0 mm 3 m/S 754 mmHg 44%
    21:00 +20°C° 0 mm 3 m/S 754 mmHg 45%
    22:00 +19°C° 0 mm 3 m/S 754 mmHg 45%
    23:00 +18°C° 0 mm 3 m/S 753 mmHg 46%

    20 August, Montag

    Zeit Temperatur Niederschläge Wind Luftdruck Luftfeuchtigkeit
    00:00 +18°C° 0 mm 3 m/S 753 mmHg 47%
    01:00 +17°C° 0 mm 2 m/S 753 mmHg 47%
    02:00 +17°C° 0 mm 2 m/S 753 mmHg 48%
    03:00 +16°C° 0 mm 2 m/S 753 mmHg 49%
    04:00 +16°C° 0 mm 2 m/S 754 mmHg 51%
    05:00 +16°C° 0 mm 2 m/S 754 mmHg 52%
    06:00 +18°C° 0 mm 2 m/S 754 mmHg 49%
    07:00 +20°C° 0 mm 2 m/S 754 mmHg 45%
    08:00 +23°C° 0 mm 2 m/S 754 mmHg 41%
    09:00 +25°C° 0 mm 2 m/S 754 mmHg 38%
    10:00 +26°C° 0 mm 2 m/S 754 mmHg 34%
    11:00 +28°C° 0 mm 2 m/S 753 mmHg 30%
    12:00 +29°C° 0 mm 1 m/S 753 mmHg 30%
    13:00 +30°C° 0 mm 1 m/S 753 mmHg 29%
    14:00 +30°C° 0 mm 1 m/S 753 mmHg 29%
    15:00 +28°C° 0 mm 0 m/S 753 mmHg 31%
    16:00 +28°C° 0 mm 0 m/S 753 mmHg 33%
    17:00 +28°C° 0 mm 0 m/S 753 mmHg 35%
    18:00 +26°C° 0 mm 0 m/S 753 mmHg 38%
    19:00 +26°C° 0 mm 1 m/S 753 mmHg 40%
    20:00 +24°C° 0 mm 1 m/S 753 mmHg 42%
    21:00 +23°C° 0 mm 1 m/S 753 mmHg 43%
    22:00 +23°C° 0 mm 1 m/S 753 mmHg 43%
    23:00 +22°C° 0 mm 1 m/S 753 mmHg 43%
    Mehr zeigen